Year,Month,Day,Hour,Minute,Value (Times are PST for barometer in hPa)
2017,02,12,00,00,1032.54
2017,02,12,00,01,1032.51
2017,02,12,00,02,1032.50
2017,02,12,00,03,1032.45
2017,02,12,00,04,1032.51
2017,02,12,00,05,1032.61
2017,02,12,00,06,1032.61
2017,02,12,00,07,1032.61
2017,02,12,00,08,1032.61
2017,02,12,00,09,1032.60
2017,02,12,00,10,1032.57
2017,02,12,00,11,1032.54
2017,02,12,00,12,1032.53
2017,02,12,00,13,1032.52
2017,02,12,00,14,1032.55
2017,02,12,00,15,1032.57
2017,02,12,00,16,1032.54
2017,02,12,00,17,1032.55
2017,02,12,00,18,1032.56
2017,02,12,00,19,1032.51
2017,02,12,00,20,1032.52
2017,02,12,00,21,1032.55
2017,02,12,00,22,1032.57
2017,02,12,00,23,1032.56
2017,02,12,00,24,1032.62
2017,02,12,00,25,1032.66
2017,02,12,00,26,1032.69
2017,02,12,00,27,1032.73
2017,02,12,00,28,1032.78
2017,02,12,00,29,1032.78
2017,02,12,00,30,1032.77
2017,02,12,00,31,1032.75
2017,02,12,00,32,1032.75
2017,02,12,00,33,1032.77
2017,02,12,00,34,1032.80
2017,02,12,00,35,1032.75
2017,02,12,00,36,1032.75
2017,02,12,00,37,1032.73
2017,02,12,00,38,1032.67
2017,02,12,00,39,1032.64
2017,02,12,00,40,1032.60
2017,02,12,00,41,1032.58
2017,02,12,00,42,1032.56
2017,02,12,00,43,1032.51
2017,02,12,00,44,1032.49
2017,02,12,00,45,1032.43
2017,02,12,00,46,1032.40
2017,02,12,00,47,1032.38
2017,02,12,00,48,1032.40
2017,02,12,00,49,1032.37
2017,02,12,00,50,1032.36
2017,02,12,00,51,1032.34
2017,02,12,00,52,1032.34
2017,02,12,00,53,1032.35
2017,02,12,00,54,1032.36
2017,02,12,00,55,1032.33
2017,02,12,00,56,1032.29
2017,02,12,00,57,1032.29
2017,02,12,00,58,1032.30
2017,02,12,00,59,1032.27
2017,02,12,01,00,1032.27
2017,02,12,01,01,1032.29
2017,02,12,01,02,1032.33
2017,02,12,01,03,1032.32
2017,02,12,01,04,1032.34
2017,02,12,01,05,1032.34
2017,02,12,01,06,1032.35
2017,02,12,01,07,1032.37
2017,02,12,01,08,1032.37
2017,02,12,01,09,1032.37
2017,02,12,01,10,1032.37
2017,02,12,01,11,1032.39
2017,02,12,01,12,1032.42
2017,02,12,01,13,1032.45
2017,02,12,01,14,1032.50
2017,02,12,01,15,1032.54
2017,02,12,01,16,1032.54
2017,02,12,01,17,1032.56
2017,02,12,01,18,1032.55
2017,02,12,01,19,1032.51
2017,02,12,01,20,1032.54
2017,02,12,01,21,1032.57
2017,02,12,01,22,1032.61
2017,02,12,01,23,1032.60
2017,02,12,01,24,1032.61
2017,02,12,01,25,1032.63
2017,02,12,01,26,1032.60
2017,02,12,01,27,1032.59
2017,02,12,01,28,1032.64
2017,02,12,01,29,1032.68
2017,02,12,01,30,1032.68
2017,02,12,01,31,1032.71
2017,02,12,01,32,1032.73
2017,02,12,01,33,1032.71
2017,02,12,01,34,1032.69
2017,02,12,01,35,1032.63
2017,02,12,01,36,1032.61
2017,02,12,01,37,1032.63
2017,02,12,01,38,1032.63
2017,02,12,01,39,1032.61
2017,02,12,01,40,1032.61
2017,02,12,01,41,1032.60
2017,02,12,01,42,1032.58
2017,02,12,01,43,1032.58
2017,02,12,01,44,1032.55
2017,02,12,01,45,1032.52
2017,02,12,01,46,1032.51
2017,02,12,01,47,1032.49
2017,02,12,01,48,1032.48
2017,02,12,01,49,1032.43
2017,02,12,01,50,1032.39
2017,02,12,01,51,1032.34
2017,02,12,01,52,1032.29
2017,02,12,01,53,1032.24
2017,02,12,01,54,1032.22
2017,02,12,01,55,1032.24
2017,02,12,01,56,1032.20
2017,02,12,01,57,1032.14
2017,02,12,01,58,1032.10
2017,02,12,01,59,1032.06
2017,02,12,02,00,1031.99
2017,02,12,02,01,1031.97
2017,02,12,02,02,1031.98
2017,02,12,02,03,1032.00
2017,02,12,02,04,1032.02
2017,02,12,02,05,1032.04
2017,02,12,02,06,1032.04
2017,02,12,02,07,1032.06
2017,02,12,02,08,1032.06
2017,02,12,02,09,1032.02
2017,02,12,02,10,1032.00
2017,02,12,02,11,1032.00
2017,02,12,02,12,1032.00
2017,02,12,02,13,1032.00
2017,02,12,02,14,1032.00
2017,02,12,02,15,1032.04
2017,02,12,02,16,1032.07
2017,02,12,02,17,1032.08
2017,02,12,02,18,1032.08
2017,02,12,02,19,1032.14
2017,02,12,02,20,1032.21
2017,02,12,02,21,1032.23
2017,02,12,02,22,1032.24
2017,02,12,02,23,1032.24
2017,02,12,02,24,1032.24
2017,02,12,02,25,1032.22
2017,02,12,02,26,1032.17
2017,02,12,02,27,1032.12
2017,02,12,02,28,1032.12
2017,02,12,02,29,1032.12
2017,02,12,02,30,1032.10
2017,02,12,02,31,1032.14
2017,02,12,02,32,1032.21
2017,02,12,02,33,1032.24
2017,02,12,02,34,1032.22
2017,02,12,02,35,1032.25
2017,02,12,02,36,1032.29
2017,02,12,02,37,1032.31
2017,02,12,02,38,1032.29
2017,02,12,02,39,1032.25
2017,02,12,02,40,1032.24
2017,02,12,02,41,1032.24
2017,02,12,02,42,1032.22
2017,02,12,02,43,1032.19
2017,02,12,02,44,1032.13
2017,02,12,02,45,1032.10
2017,02,12,02,46,1032.10
2017,02,12,02,47,1032.12
2017,02,12,02,48,1032.14
2017,02,12,02,49,1032.14
2017,02,12,02,50,1032.10
2017,02,12,02,51,1032.02
2017,02,12,02,52,1032.00
2017,02,12,02,53,1031.98
2017,02,12,02,54,1031.97
2017,02,12,02,55,1032.01
2017,02,12,02,56,1032.00
2017,02,12,02,57,1031.99
2017,02,12,02,58,1032.00
2017,02,12,02,59,1032.00
2017,02,12,03,00,1031.98
2017,02,12,03,01,1031.99
2017,02,12,03,02,1031.98
2017,02,12,03,03,1031.97
2017,02,12,03,04,1031.97
2017,02,12,03,05,1031.94
2017,02,12,03,06,1031.91
2017,02,12,03,07,1031.92
2017,02,12,03,08,1031.93
2017,02,12,03,09,1031.93
2017,02,12,03,10,1031.91
2017,02,12,03,11,1031.90
2017,02,12,03,12,1031.90
2017,02,12,03,13,1031.88
2017,02,12,03,14,1031.82
2017,02,12,03,15,1031.80
2017,02,12,03,16,1031.80
2017,02,12,03,17,1031.80
2017,02,12,03,18,1031.78
2017,02,12,03,19,1031.72
2017,02,12,03,20,1031.70
2017,02,12,03,21,1031.70
2017,02,12,03,22,1031.70
2017,02,12,03,23,1031.67
2017,02,12,03,24,1031.64
2017,02,12,03,25,1031.61
2017,02,12,03,26,1031.57
2017,02,12,03,27,1031.51
2017,02,12,03,28,1031.49
2017,02,12,03,29,1031.49
2017,02,12,03,30,1031.52
2017,02,12,03,31,1031.53
2017,02,12,03,32,1031.53
2017,02,12,03,33,1031.53
2017,02,12,03,34,1031.50
2017,02,12,03,35,1031.47
2017,02,12,03,36,1031.48
2017,02,12,03,37,1031.49
2017,02,12,03,38,1031.47
2017,02,12,03,39,1031.48
2017,02,12,03,40,1031.49
2017,02,12,03,41,1031.49
2017,02,12,03,42,1031.52
2017,02,12,03,43,1031.58
2017,02,12,03,44,1031.60
2017,02,12,03,45,1031.65
2017,02,12,03,46,1031.64
2017,02,12,03,47,1031.61
2017,02,12,03,48,1031.57
2017,02,12,03,49,1031.59
2017,02,12,03,50,1031.57
2017,02,12,03,51,1031.54
2017,02,12,03,52,1031.53
2017,02,12,03,53,1031.53
2017,02,12,03,54,1031.55
2017,02,12,03,55,1031.56
2017,02,12,03,56,1031.61
2017,02,12,03,57,1031.65
2017,02,12,03,58,1031.64
2017,02,12,03,59,1031.65
2017,02,12,04,00,1031.69
2017,02,12,04,01,1031.70
2017,02,12,04,02,1031.72
2017,02,12,04,03,1031.73
2017,02,12,04,04,1031.79
2017,02,12,04,08,1031.80
2017,02,12,04,09,1031.80
2017,02,12,04,10,1031.79
2017,02,12,04,11,1031.80
2017,02,12,04,12,1031.86
2017,02,12,04,13,1031.85
2017,02,12,04,14,1031.86
2017,02,12,04,15,1031.77
2017,02,12,04,16,1031.77
2017,02,12,04,17,1031.77
2017,02,12,04,18,1031.79
2017,02,12,04,19,1031.83
2017,02,12,04,20,1031.84
2017,02,12,04,21,1031.86
2017,02,12,04,22,1031.81
2017,02,12,04,23,1031.77
2017,02,12,04,24,1031.76
2017,02,12,04,25,1031.71
2017,02,12,04,26,1031.66
2017,02,12,04,27,1031.67
2017,02,12,04,28,1031.70
2017,02,12,04,29,1031.69
2017,02,12,04,30,1031.65
2017,02,12,04,31,1031.63
2017,02,12,04,32,1031.61
2017,02,12,04,33,1031.56
2017,02,12,04,34,1031.54
2017,02,12,04,35,1031.51
2017,02,12,04,36,1031.49
2017,02,12,04,37,1031.44
2017,02,12,04,38,1031.42
2017,02,12,04,39,1031.36
2017,02,12,04,40,1031.36
2017,02,12,04,41,1031.36
2017,02,12,04,42,1031.38
2017,02,12,04,43,1031.43
2017,02,12,04,44,1031.45
2017,02,12,04,45,1031.51
2017,02,12,04,46,1031.54
2017,02,12,04,47,1031.56
2017,02,12,04,48,1031.58
2017,02,12,04,49,1031.58
2017,02,12,04,50,1031.55
2017,02,12,04,51,1031.56
2017,02,12,04,52,1031.58
2017,02,12,04,53,1031.51
2017,02,12,04,54,1031.49
2017,02,12,04,55,1031.47
2017,02,12,04,56,1031.41
2017,02,12,04,57,1031.39
2017,02,12,04,58,1031.38
2017,02,12,04,59,1031.35
2017,02,12,05,00,1031.33
2017,02,12,05,01,1031.36
2017,02,12,05,02,1031.39
2017,02,12,05,03,1031.41
2017,02,12,05,04,1031.44
2017,02,12,05,05,1031.43
2017,02,12,05,06,1031.41
2017,02,12,05,07,1031.41
2017,02,12,05,08,1031.39
2017,02,12,05,09,1031.38
2017,02,12,05,10,1031.37
2017,02,12,05,11,1031.38
2017,02,12,05,12,1031.33
2017,02,12,05,13,1031.31
2017,02,12,05,14,1031.31
2017,02,12,05,15,1031.28
2017,02,12,05,16,1031.24
2017,02,12,05,17,1031.22
2017,02,12,05,18,1031.21
2017,02,12,05,19,1031.19
2017,02,12,05,20,1031.22
2017,02,12,05,21,1031.24
2017,02,12,05,22,1031.22
2017,02,12,05,23,1031.22
2017,02,12,05,24,1031.19
2017,02,12,05,25,1031.16
2017,02,12,05,26,1031.18
2017,02,12,05,27,1031.18
2017,02,12,05,28,1031.16
2017,02,12,05,29,1031.16
2017,02,12,05,30,1031.11
2017,02,12,05,31,1031.05
2017,02,12,05,32,1031.05
2017,02,12,05,33,1031.08
2017,02,12,05,34,1031.12
2017,02,12,05,35,1031.12
2017,02,12,05,36,1031.14
2017,02,12,05,37,1031.12
2017,02,12,05,38,1031.10
2017,02,12,05,39,1031.14
2017,02,12,05,40,1031.13
2017,02,12,05,41,1031.10
2017,02,12,05,42,1031.08
2017,02,12,05,43,1031.04
2017,02,12,05,44,1031.02
2017,02,12,05,45,1030.98
2017,02,12,05,46,1030.97
2017,02,12,05,47,1030.97
2017,02,12,05,48,1030.95
2017,02,12,05,49,1030.97
2017,02,12,05,50,1031.02
2017,02,12,05,51,1031.04
2017,02,12,05,52,1031.00
2017,02,12,05,53,1031.01
2017,02,12,05,54,1031.06
2017,02,12,05,55,1031.10
2017,02,12,05,56,1031.12
2017,02,12,05,57,1031.10
2017,02,12,05,58,1031.07
2017,02,12,05,59,1031.05
2017,02,12,06,00,1031.02
2017,02,12,06,01,1030.97
2017,02,12,06,02,1030.93
2017,02,12,06,03,1030.92
2017,02,12,06,04,1030.94
2017,02,12,06,05,1030.91
2017,02,12,06,06,1030.88
2017,02,12,06,07,1030.90
2017,02,12,06,08,1030.86
2017,02,12,06,09,1030.82
2017,02,12,06,10,1030.80
2017,02,12,06,11,1030.74
2017,02,12,06,12,1030.74
2017,02,12,06,13,1030.73
2017,02,12,06,14,1030.74
2017,02,12,06,15,1030.79
2017,02,12,06,16,1030.82
2017,02,12,06,17,1030.84
2017,02,12,06,18,1030.85
2017,02,12,06,19,1030.85
2017,02,12,06,20,1030.87
2017,02,12,06,21,1030.86
2017,02,12,06,22,1030.83
2017,02,12,06,23,1030.82
2017,02,12,06,24,1030.78
2017,02,12,06,25,1030.79
2017,02,12,06,26,1030.82
2017,02,12,06,27,1030.82
2017,02,12,06,28,1030.84
2017,02,12,06,29,1030.85
2017,02,12,06,30,1030.85
2017,02,12,06,31,1030.87
2017,02,12,06,32,1030.82
2017,02,12,06,33,1030.80
2017,02,12,06,34,1030.79
2017,02,12,06,35,1030.78
2017,02,12,06,36,1030.78
2017,02,12,06,37,1030.78
2017,02,12,06,38,1030.78
2017,02,12,06,39,1030.74
2017,02,12,06,40,1030.74
2017,02,12,06,41,1030.73
2017,02,12,06,42,1030.74
2017,02,12,06,43,1030.73
2017,02,12,06,44,1030.67
2017,02,12,06,45,1030.65
2017,02,12,06,46,1030.65
2017,02,12,06,47,1030.65
2017,02,12,06,48,1030.67
2017,02,12,06,49,1030.71
2017,02,12,06,50,1030.72
2017,02,12,06,51,1030.72
2017,02,12,06,52,1030.79
2017,02,12,06,53,1030.79
2017,02,12,06,54,1030.78
2017,02,12,06,55,1030.78
2017,02,12,06,56,1030.78
2017,02,12,06,57,1030.78
2017,02,12,06,58,1030.78
2017,02,12,06,59,1030.76
2017,02,12,07,00,1030.73
2017,02,12,07,01,1030.74
2017,02,12,07,02,1030.75
2017,02,12,07,03,1030.75
2017,02,12,07,04,1030.77
2017,02,12,07,05,1030.78
2017,02,12,07,06,1030.78
2017,02,12,07,07,1030.81
2017,02,12,07,08,1030.84
2017,02,12,07,09,1030.83
2017,02,12,07,10,1030.84
2017,02,12,07,11,1030.87
2017,02,12,07,12,1030.91
2017,02,12,07,13,1030.89
2017,02,12,07,14,1030.88
2017,02,12,07,15,1030.93
2017,02,12,07,16,1030.93
2017,02,12,07,17,1030.92
2017,02,12,07,18,1030.92
2017,02,12,07,19,1030.94
2017,02,12,07,20,1030.95
2017,02,12,07,21,1030.95
2017,02,12,07,22,1030.98
2017,02,12,07,23,1030.99
2017,02,12,07,24,1031.01
2017,02,12,07,25,1031.02
2017,02,12,07,26,1031.04
2017,02,12,07,27,1031.05
2017,02,12,07,28,1031.08
2017,02,12,07,29,1031.04
2017,02,12,07,30,1031.04
2017,02,12,07,31,1031.05
2017,02,12,07,32,1031.05
2017,02,12,07,33,1031.05
2017,02,12,07,34,1031.03
2017,02,12,07,35,1031.07
2017,02,12,07,36,1031.09
2017,02,12,07,37,1031.09
2017,02,12,07,38,1031.09
2017,02,12,07,39,1031.03
2017,02,12,07,40,1031.02
2017,02,12,07,41,1031.00
2017,02,12,07,42,1030.99
2017,02,12,07,43,1030.99
2017,02,12,07,44,1030.93
2017,02,12,07,45,1030.89
2017,02,12,07,46,1030.94
2017,02,12,07,47,1030.98
2017,02,12,07,48,1030.99
2017,02,12,07,49,1030.99
2017,02,12,07,50,1031.01
2017,02,12,07,51,1031.04
2017,02,12,07,52,1031.03
2017,02,12,07,53,1031.00
2017,02,12,07,54,1030.99
2017,02,12,07,55,1031.02
2017,02,12,07,56,1031.04
2017,02,12,07,57,1031.05
2017,02,12,07,58,1031.08
2017,02,12,07,59,1031.12
2017,02,12,08,00,1031.12
2017,02,12,08,01,1031.10
2017,02,12,08,02,1031.09
2017,02,12,08,03,1031.09
2017,02,12,08,04,1031.09
2017,02,12,08,05,1031.11
2017,02,12,08,06,1031.12
2017,02,12,08,07,1031.15
2017,02,12,08,08,1031.19
2017,02,12,08,09,1031.19
2017,02,12,08,10,1031.22
2017,02,12,08,11,1031.20
2017,02,12,08,12,1031.28
2017,02,12,08,13,1031.33
2017,02,12,08,14,1031.36
2017,02,12,08,15,1031.33
2017,02,12,08,16,1031.36
2017,02,12,08,17,1031.36
2017,02,12,08,18,1031.45
2017,02,12,08,19,1031.46
2017,02,12,08,20,1031.46
2017,02,12,08,21,1031.52
2017,02,12,08,22,1031.53
2017,02,12,08,23,1031.53
2017,02,12,08,24,1031.53
2017,02,12,08,25,1031.53
2017,02,12,08,26,1031.53
2017,02,12,08,27,1031.56
2017,02,12,08,28,1031.53
2017,02,12,08,29,1031.56
2017,02,12,08,30,1031.53
2017,02,12,08,31,1031.56
2017,02,12,08,32,1031.53
2017,02,12,08,33,1031.59
2017,02,12,08,34,1031.56
2017,02,12,08,35,1031.56
2017,02,12,08,36,1031.50
2017,02,12,08,37,1031.49
2017,02,12,08,38,1031.53
2017,02,12,08,39,1031.53
2017,02,12,08,40,1031.62
2017,02,12,08,41,1031.60
2017,02,12,08,42,1031.63
2017,02,12,08,43,1031.63
2017,02,12,08,44,1031.63
2017,02,12,08,45,1031.63
2017,02,12,08,46,1031.66
2017,02,12,08,47,1031.66
2017,02,12,08,48,1031.63
2017,02,12,08,49,1031.63
2017,02,12,08,50,1031.66
2017,02,12,08,51,1031.73
2017,02,12,08,52,1031.77
2017,02,12,08,53,1031.77
2017,02,12,08,54,1031.80
2017,02,12,08,55,1031.80
2017,02,12,08,56,1031.83
2017,02,12,08,57,1031.80
2017,02,12,08,58,1031.83
2017,02,12,08,59,1031.77
2017,02,12,09,00,1031.70
2017,02,12,09,01,1031.70
2017,02,12,09,02,1031.66
2017,02,12,09,03,1031.56
2017,02,12,09,04,1031.53
2017,02,12,09,05,1031.46
2017,02,12,09,06,1031.46
2017,02,12,09,07,1031.49
2017,02,12,09,08,1031.53
2017,02,12,09,09,1031.56
2017,02,12,09,10,1031.60
2017,02,12,09,11,1031.60
2017,02,12,09,12,1031.66
2017,02,12,09,13,1031.63
2017,02,12,09,14,1031.60
2017,02,12,09,15,1031.60
2017,02,12,09,16,1031.60
2017,02,12,09,17,1031.63
2017,02,12,09,18,1031.60
2017,02,12,09,19,1031.60
2017,02,12,09,20,1031.63
2017,02,12,09,21,1031.63
2017,02,12,09,22,1031.60
2017,02,12,09,23,1031.66
2017,02,12,09,24,1031.70
2017,02,12,09,25,1031.70
2017,02,12,09,26,1031.77
2017,02,12,09,27,1031.77
2017,02,12,09,28,1031.70
2017,02,12,09,29,1031.70
2017,02,12,09,30,1031.70
2017,02,12,09,31,1031.66
2017,02,12,09,32,1031.70
2017,02,12,09,33,1031.70
2017,02,12,09,34,1031.73
2017,02,12,09,35,1031.77
2017,02,12,09,36,1031.77
2017,02,12,09,37,1031.77
2017,02,12,09,38,1031.79
2017,02,12,09,39,1031.70
2017,02,12,09,40,1031.70
2017,02,12,09,41,1031.67
2017,02,12,09,42,1031.73
2017,02,12,09,43,1031.73
2017,02,12,09,44,1031.73
2017,02,12,09,45,1031.73
2017,02,12,09,46,1031.70
2017,02,12,09,47,1031.69
2017,02,12,09,48,1031.63
2017,02,12,09,49,1031.62
2017,02,12,09,50,1031.56
2017,02,12,09,51,1031.52
2017,02,12,09,52,1031.48
2017,02,12,09,53,1031.43
2017,02,12,09,54,1031.43
2017,02,12,09,55,1031.40
2017,02,12,09,56,1031.45
2017,02,12,09,57,1031.39
2017,02,12,09,58,1031.39
2017,02,12,09,59,1031.36
2017,02,12,10,00,1031.39
2017,02,12,10,01,1031.36
2017,02,12,10,02,1031.36
2017,02,12,10,03,1031.40
2017,02,12,10,04,1031.42
2017,02,12,10,05,1031.39
2017,02,12,10,06,1031.43
2017,02,12,10,07,1031.46
2017,02,12,10,08,1031.46
2017,02,12,10,09,1031.42
2017,02,12,10,10,1031.40
2017,02,12,10,11,1031.44
2017,02,12,10,12,1031.45
2017,02,12,10,13,1031.44
2017,02,12,10,14,1031.45
2017,02,12,10,15,1031.40
2017,02,12,10,16,1031.42
2017,02,12,10,17,1031.36
2017,02,12,10,18,1031.32
2017,02,12,10,19,1031.26
2017,02,12,10,20,1031.27
2017,02,12,10,21,1031.29
2017,02,12,10,22,1031.28
2017,02,12,10,23,1031.27
2017,02,12,10,24,1031.29
2017,02,12,10,25,1031.28
2017,02,12,10,26,1031.24
2017,02,12,10,27,1031.19
2017,02,12,10,28,1031.20
2017,02,12,10,29,1031.21
2017,02,12,10,30,1031.19
2017,02,12,10,31,1031.17
2017,02,12,10,32,1031.10
2017,02,12,10,33,1031.17
2017,02,12,10,34,1031.21
2017,02,12,10,35,1031.19
2017,02,12,10,36,1031.18
2017,02,12,10,37,1031.11
2017,02,12,10,38,1031.08
2017,02,12,10,39,1031.02
2017,02,12,10,40,1031.01
2017,02,12,10,41,1031.00
2017,02,12,10,42,1031.04
2017,02,12,10,43,1031.00
2017,02,12,10,44,1031.01
2017,02,12,10,45,1030.99
2017,02,12,10,46,1030.99
2017,02,12,10,47,1031.00
2017,02,12,10,48,1031.01
2017,02,12,10,49,1030.99
2017,02,12,10,50,1030.97
2017,02,12,10,51,1030.94
2017,02,12,10,52,1030.99
2017,02,12,10,53,1030.99
2017,02,12,10,54,1030.98
2017,02,12,10,55,1030.94
2017,02,12,10,56,1030.93
2017,02,12,10,57,1030.95
2017,02,12,10,58,1030.95
2017,02,12,10,59,1030.95
2017,02,12,11,00,1030.95
2017,02,12,11,01,1030.96
2017,02,12,11,02,1030.97
2017,02,12,11,03,1030.93
2017,02,12,11,04,1030.93
2017,02,12,11,05,1030.90
2017,02,12,11,06,1030.96
2017,02,12,11,07,1031.01
2017,02,12,11,08,1031.06
2017,02,12,11,09,1031.08
2017,02,12,11,10,1031.05
2017,02,12,11,11,1031.05
2017,02,12,11,12,1031.05
2017,02,12,11,13,1031.05
2017,02,12,11,14,1031.04
2017,02,12,11,15,1031.01
2017,02,12,11,16,1031.02
2017,02,12,11,17,1031.08
2017,02,12,11,18,1031.06
2017,02,12,11,19,1031.08
2017,02,12,11,20,1031.04
2017,02,12,11,21,1031.01
2017,02,12,11,22,1031.00
2017,02,12,11,23,1031.01
2017,02,12,11,24,1030.99
2017,02,12,11,25,1030.99
2017,02,12,11,26,1031.00
2017,02,12,11,27,1031.03
2017,02,12,11,28,1031.06
2017,02,12,11,29,1031.10
2017,02,12,11,30,1031.11
2017,02,12,11,31,1031.09
2017,02,12,11,32,1031.07
2017,02,12,11,33,1031.03
2017,02,12,11,34,1031.06
2017,02,12,11,35,1031.07
2017,02,12,11,36,1031.05
2017,02,12,11,37,1031.05
2017,02,12,11,38,1031.05
2017,02,12,11,39,1031.05
2017,02,12,11,40,1031.05
2017,02,12,11,41,1031.06
2017,02,12,11,42,1031.07
2017,02,12,11,43,1031.05
2017,02,12,11,44,1031.06
2017,02,12,11,45,1031.09
2017,02,12,11,46,1031.07
2017,02,12,11,47,1031.03
2017,02,12,11,48,1031.03
2017,02,12,11,49,1030.96
2017,02,12,11,50,1030.90
2017,02,12,11,51,1030.87
2017,02,12,11,52,1030.86
2017,02,12,11,53,1030.87
2017,02,12,11,54,1030.85
2017,02,12,11,55,1030.85
2017,02,12,11,56,1030.85
2017,02,12,11,57,1030.86
2017,02,12,11,58,1030.84
2017,02,12,11,59,1030.78
2017,02,12,12,00,1030.78
2017,02,12,12,01,1030.78
2017,02,12,12,02,1030.77
2017,02,12,12,03,1030.76
2017,02,12,12,04,1030.80
2017,02,12,12,05,1030.83
2017,02,12,12,06,1030.85
2017,02,12,12,07,1030.86
2017,02,12,12,08,1030.90
2017,02,12,12,09,1030.92
2017,02,12,12,10,1030.92
2017,02,12,12,11,1030.95
2017,02,12,12,12,1030.97
2017,02,12,12,13,1030.95
2017,02,12,12,14,1030.94
2017,02,12,12,15,1030.92
2017,02,12,12,16,1030.94
2017,02,12,12,17,1030.97
2017,02,12,12,18,1030.97
2017,02,12,12,19,1030.95
2017,02,12,12,20,1030.97
2017,02,12,12,21,1030.97
2017,02,12,12,22,1030.95
2017,02,12,12,23,1030.92
2017,02,12,12,24,1030.90
2017,02,12,12,25,1030.92
2017,02,12,12,26,1030.90
2017,02,12,12,27,1030.86
2017,02,12,12,28,1030.81
2017,02,12,12,29,1030.78
2017,02,12,12,30,1030.77
2017,02,12,12,31,1030.75
2017,02,12,12,32,1030.75
2017,02,12,12,33,1030.74
2017,02,12,12,34,1030.72
2017,02,12,12,35,1030.67
2017,02,12,12,36,1030.64
2017,02,12,12,37,1030.68
2017,02,12,12,38,1030.68
2017,02,12,12,39,1030.67
2017,02,12,12,40,1030.63
2017,02,12,12,41,1030.61
2017,02,12,12,42,1030.63
2017,02,12,12,43,1030.65
2017,02,12,12,44,1030.61
2017,02,12,12,45,1030.58
2017,02,12,12,46,1030.56
2017,02,12,12,47,1030.53
2017,02,12,12,48,1030.53
2017,02,12,12,49,1030.49
2017,02,12,12,50,1030.42
2017,02,12,12,51,1030.45
2017,02,12,12,52,1030.46
2017,02,12,12,53,1030.46
2017,02,12,12,54,1030.46
2017,02,12,12,55,1030.46
2017,02,12,12,56,1030.46
2017,02,12,12,57,1030.48
2017,02,12,12,58,1030.53
2017,02,12,12,59,1030.57
2017,02,12,13,00,1030.56
2017,02,12,13,01,1030.53
2017,02,12,13,02,1030.55
2017,02,12,13,03,1030.58
2017,02,12,13,04,1030.54
2017,02,12,13,05,1030.51
2017,02,12,13,06,1030.53
2017,02,12,13,07,1030.53
2017,02,12,13,08,1030.53
2017,02,12,13,09,1030.55
2017,02,12,13,10,1030.55
2017,02,12,13,11,1030.53
2017,02,12,13,12,1030.51
2017,02,12,13,13,1030.51
2017,02,12,13,14,1030.53
2017,02,12,13,15,1030.55
2017,02,12,13,16,1030.53
2017,02,12,13,17,1030.49
2017,02,12,13,18,1030.44
2017,02,12,13,19,1030.41
2017,02,12,13,20,1030.35
2017,02,12,13,21,1030.29
2017,02,12,13,22,1030.24
2017,02,12,13,23,1030.19
2017,02,12,13,24,1030.17
2017,02,12,13,25,1030.15
2017,02,12,13,26,1030.07
2017,02,12,13,27,1030.06
2017,02,12,13,28,1030.02
2017,02,12,13,29,1029.96
2017,02,12,13,30,1029.94
2017,02,12,13,31,1029.94
2017,02,12,13,32,1029.94
2017,02,12,13,33,1029.90
2017,02,12,13,34,1029.85
2017,02,12,13,35,1029.86
2017,02,12,13,36,1029.87
2017,02,12,13,37,1029.87
2017,02,12,13,38,1029.85
2017,02,12,13,39,1029.81
2017,02,12,13,40,1029.78
2017,02,12,13,41,1029.79
2017,02,12,13,42,1029.80
2017,02,12,13,43,1029.80
2017,02,12,13,44,1029.78
2017,02,12,13,45,1029.77
2017,02,12,13,46,1029.77
2017,02,12,13,47,1029.77
2017,02,12,13,48,1029.77
2017,02,12,13,49,1029.74
2017,02,12,13,50,1029.76
2017,02,12,13,51,1029.72
2017,02,12,13,52,1029.70
2017,02,12,13,53,1029.65
2017,02,12,13,54,1029.63
2017,02,12,13,55,1029.58
2017,02,12,13,56,1029.54
2017,02,12,13,57,1029.55
2017,02,12,13,58,1029.56
2017,02,12,13,59,1029.52
2017,02,12,14,00,1029.50
2017,02,12,14,01,1029.45
2017,02,12,14,02,1029.45
2017,02,12,14,03,1029.46
2017,02,12,14,04,1029.41
2017,02,12,14,05,1029.39
2017,02,12,14,06,1029.32
2017,02,12,14,07,1029.24
2017,02,12,14,08,1029.20
2017,02,12,14,09,1029.17
2017,02,12,14,10,1029.13
2017,02,12,14,11,1029.10
2017,02,12,14,12,1029.07
2017,02,12,14,13,1029.06
2017,02,12,14,14,1029.01
2017,02,12,14,15,1028.99
2017,02,12,14,16,1028.94
2017,02,12,14,17,1028.92
2017,02,12,14,18,1028.92
2017,02,12,14,19,1028.90
2017,02,12,14,20,1028.91
2017,02,12,14,21,1028.90
2017,02,12,14,22,1028.86
2017,02,12,14,23,1028.85
2017,02,12,14,24,1028.85
2017,02,12,14,25,1028.80
2017,02,12,14,26,1028.79
2017,02,12,14,27,1028.73
2017,02,12,14,28,1028.67
2017,02,12,14,29,1028.65
2017,02,12,14,30,1028.63
2017,02,12,14,31,1028.70
2017,02,12,14,32,1028.67
2017,02,12,14,33,1028.65
2017,02,12,14,34,1028.65
2017,02,12,14,35,1028.65
2017,02,12,14,36,1028.67
2017,02,12,14,37,1028.71
2017,02,12,14,38,1028.78
2017,02,12,14,39,1028.81
2017,02,12,14,40,1028.84
2017,02,12,14,41,1028.83
2017,02,12,14,42,1028.84
2017,02,12,14,43,1028.85
2017,02,12,14,44,1028.85
2017,02,12,14,45,1028.88
2017,02,12,14,46,1028.92
2017,02,12,14,47,1028.86
2017,02,12,14,48,1028.85
2017,02,12,14,49,1028.85
2017,02,12,14,50,1028.83
2017,02,12,14,51,1028.84
2017,02,12,14,52,1028.80
2017,02,12,14,53,1028.76
2017,02,12,14,54,1028.75
2017,02,12,14,55,1028.75
2017,02,12,14,56,1028.67
2017,02,12,14,57,1028.65
2017,02,12,14,58,1028.68
2017,02,12,14,59,1028.68
2017,02,12,15,00,1028.68
2017,02,12,15,01,1028.65
2017,02,12,15,02,1028.67
2017,02,12,15,03,1028.65
2017,02,12,15,04,1028.59
2017,02,12,15,05,1028.64
2017,02,12,15,06,1028.62
2017,02,12,15,07,1028.67
2017,02,12,15,08,1028.65
2017,02,12,15,09,1028.68
2017,02,12,15,10,1028.68
2017,02,12,15,11,1028.68
2017,02,12,15,12,1028.68
2017,02,12,15,13,1028.65
2017,02,12,15,14,1028.65
2017,02,12,15,15,1028.68
2017,02,12,15,16,1028.68
2017,02,12,15,17,1028.71
2017,02,12,15,18,1028.72
2017,02,12,15,19,1028.72
2017,02,12,15,20,1028.68
2017,02,12,15,21,1028.68
2017,02,12,15,22,1028.65
2017,02,12,15,23,1028.65
2017,02,12,15,24,1028.62
2017,02,12,15,25,1028.62
2017,02,12,15,26,1028.52
2017,02,12,15,27,1028.51
2017,02,12,15,28,1028.48
2017,02,12,15,29,1028.48
2017,02,12,15,30,1028.51
2017,02,12,15,31,1028.48
2017,02,12,15,32,1028.45
2017,02,12,15,33,1028.48
2017,02,12,15,34,1028.51
2017,02,12,15,35,1028.48
2017,02,12,15,36,1028.41
2017,02,12,15,37,1028.45
2017,02,12,15,38,1028.41
2017,02,12,15,39,1028.41
2017,02,12,15,40,1028.45
2017,02,12,15,41,1028.48
2017,02,12,15,42,1028.48
2017,02,12,15,43,1028.51
2017,02,12,15,44,1028.58
2017,02,12,15,45,1028.58
2017,02,12,15,46,1028.65
2017,02,12,15,47,1028.65
2017,02,12,15,48,1028.62
2017,02,12,15,49,1028.65
2017,02,12,15,50,1028.58
2017,02,12,15,51,1028.58
2017,02,12,15,52,1028.51
2017,02,12,15,53,1028.48
2017,02,12,15,54,1028.51
2017,02,12,15,55,1028.58
2017,02,12,15,56,1028.58
2017,02,12,15,57,1028.62
2017,02,12,15,58,1028.55
2017,02,12,15,59,1028.51